Regional Weather Roundup
Issued by NWS Wakefield, VA

Home | Current Version | Previous Version | Graphics & Text | Print | Product List | Glossary On
Versions: 1 2 3 4 5 6 7 8 9 10 11 12 13 14 15 16 17 18 19 20 21 22 23 24 25 26 27 28 29 30 31 32 33 34 35 36 37 38 39 40 41 42 43 44 45 46 47 48 49 50
000
ASUS41 KAKQ 270910
RWRAKQ

REGIONAL WEATHER ROUNDUP
NATIONAL WEATHER SERVICE WAKEFIELD VA
400 AM EST FRI FEB 27 2015

Note: "fair" indicates few or no clouds below 12,000 feet with no
significant weather and/or obstructions to visibility. * = Denotes
station may not report precipitation (e.g., rain,snow,etc.),
thunder or fog.

VAZ042-051-052>054-056-271000-
NORTHERN VIRGINIA

CITY           SKY/WX    TMP DP  RH WIND       PRES   REMARKS
WASH NATIONAL  CLOUDY    32  24  72 S5        30.22R
DULLES         MOCLDY    27  21  78 NW6       30.21R
FORT BELVOIR   MOCLDY    30  26  87 CALM      30.22R
QUANTICO       CLOUDY    31  25  78 S3        30.23R
FREDERICKSBRG* CLOUDY    32  29  90 CALM      30.21R
STAFFORD*      CLOUDY    30  30 100 CALM      30.25S
WARRENTON      CLOUDY    31  30  98 CALM      30.19S
CULPEPER*      PTCLDY    27  27 100 CALM      30.20S FOG
MANASSAS*      CLOUDY    30  28  93 N5        30.21R
LEESBURG*      CLOUDY    30  23  74 N3        30.22R
WINCHESTER     MOCLDY    30  14  51 NW7       30.19S
FRONT ROYAL*   FAIR      25  21  86 CALM      30.18S
LURAY*         FAIR      27  27 100 CALM      30.17R FOG
$$

VAZ048-049-060>072-079>083-271000-
CENTRAL AND SOUTH CENTRAL VIRGINIA

CITY           SKY/WX    TMP DP  RH WIND       PRES   REMARKS
RICHMOND       CLOUDY    30  27  88 CALM      30.21R FOG
CHESTERFIELD*  CLOUDY    30  19  64 CALM      30.21R
PETERSBURG*    CLOUDY    29  29 100 CALM      30.21S FOG
HANOVER        CLOUDY    30  29  96 CALM      30.22R FOG
TAPPAHANNOCK*  CLOUDY    28  25  89 CALM      30.23R
QUINTON*       CLOUDY    28  27  99 CALM      30.22R
CHARLOTTSVILLE MOCLDY    27  25  92 CALM      30.16S
GORDONSVILLE*  PTSUNNY   27  26  94 CALM      30.17R
ORANGE*        MOCLDY    27  27 100 CALM      30.20R FOG
LOUISA*        CLOUDY    32  28  86 CALM      30.16S
BUMPASS*       CLOUDY    30  27  89 MISG      30.19R
FARMVILLE*       N/A     22  22 100 SW3       30.18S FOG
CREWE*         CLOUDY    28  26  94 CALM      30.18S
FORT PICKETT*  PTSUNNY   28  27  98 CALM      30.19S
CHASE CITY*    CLOUDY    31  31 100 CALM      30.19S
CLARKSVILLE*   FAIR      28  27  93 CALM      30.19S
SOUTH HILL*    CLOUDY    28  27  97 CALM      30.26S
LAWRENCEVILLE* CLOUDY    28  28  99 CALM      30.20R
EMPORIA*       MOCLDY    28  28 100 CALM      30.24R FOG
$$

VAZ088>098-271000-
SOUTHEAST VIRGINIA

CITY           SKY/WX    TMP DP  RH WIND       PRES   REMARKS
NORFOLK        CLEAR     28  25  88 NE5       30.19S
VIRGINIA BEACH CLEAR     27  24  89 N5        30.20R
NORFOLK NAVAL  CLEAR     29  23  78 NW6       30.22R FOG
WEST POINT*    CLOUDY    29  27  92 CALM      30.24R
SALUDA*        CLOUDY    25  24  96 CALM      30.22R
NEWPORT NEWS   CLOUDY    26  22  84 CALM      30.23R FOG
LANGLEY AFB    CLEAR     23  22  93 NW2       30.22R FOG
FORT EUSTIS    CLOUDY    25  25 100 CALM      30.21R
WILLIAMSBURG*  CLOUDY    28  28 100 CALM      30.23R
HR EXEC AP*    FAIR      23  21  93 CALM      30.23R
FRANKLIN*      MOCLDY    23  22  97 CALM      30.23R FOG
WAKEFIELD      CLOUDY    27  24  89 CALM      30.23R FOG
$$

VAZ020-022-025-037-045-271000-
WEST CENTRAL AND SOUTHWEST VIRGINIA

CITY           SKY/WX    TMP DP  RH WIND       PRES   REMARKS
STAUNTON*      PTCLDY    22  19  88 CALM      30.16R FOG
WAYNESBORO*    FAIR      29  16  58 W6        30.12R
HOT SPRINGS VA PTCLDY    16  12  82 W15G22    29.97F WCI   2
LYNCHBURG      FOG       20  19  96 CALM      30.17S VSB 1/4
DANVILLE       CLOUDY    26  24  92 CALM      30.19S FOG
SOUTH BOSTON*  PTSUNNY   24  22  94 CALM      30.20S VSB 3/4
MARTINSVILLE   MOCLDY    26  26 100 CALM      30.21R FOG
ROANOKE        CLEAR     29  17  61 NW9       30.19R
BLACKSBURG     CLEAR     24  16  70 W3        30.15S
DUBLIN*        PTCLDY    27  19  70 NW9       30.14R
MARION*        CLOUDY    27  18  69 W6        30.14S
HILLSVILLE*    CLOUDY    25  20  81 CALM      30.10R
RICHLANDS*     LGT SNOW  22  17  79 NW6       30.13S
WISE*          CLOUDY    23  18  80 NW5       30.16R
ABINGDON*      CLOUDY    28  20  71 W3        30.16R
$$

MDZ021>025-VAZ099-100-271000-
SOUTHERN MARYLAND AND THE DELMARVA PENINSULA

CITY           SKY/WX    TMP DP  RH WIND       PRES   REMARKS
PATUXENT RIVER CLOUDY    27  23  85 CALM      30.22R
BAY BRIDGE APT   N/A     28  23  80 CALM      30.23R
LEONARDTOWN    CLOUDY    27  25  93 CALM      30.23R
DOVER          CLOUDY    22  22  99 SE2       30.22R
GEORGETOWN     CLOUDY    24  17  74 CALM      30.21S
EASTON         MOCLDY    29  26  86 CALM      30.26R
CAMBRIDGE      MOCLDY    30  27  86 CALM      30.22R
SALISBURY      CLOUDY    22  17  81 CALM      30.21S
OCEAN CITY     FAIR      14  12  92 CALM      30.21S FOG
WALLOPS ISLAND CLEAR     19  18  95 N5        30.22R
ACCOMACK*      FOG      N/A N/A N/A N3        30.21R VSB 1/2
$$

NCZ012>017-030>032-271000-
NORTH CENTRAL AND EASTERN NORTH CAROLINA

CITY           SKY/WX    TMP DP  RH WIND       PRES   REMARKS
ROANOKE RAPIDS PTSUNNY   27  27 100 CALM      30.22R FOG
RALEIGH        PTCLDY    27  25  92 CALM      30.20S FOG
ELIZABETH CITY PTCLDY    29  26  89 N7        30.21R
AHOSKIE*       FOG       26  25  97 CALM      30.23R VSB 3/4
EDENTON*       PTCLDY    30  28  94 N3        30.21R FOG
CURRITUCK*     PTCLDY    29  25  83 N5        30.21R
KILL DEVIL HLS PTCLDY    33  30  89 N6        30.17R
MANTEO         PTCLDY    34  28  80 N8        30.19R
CAPE HATTERAS  CLOUDY    34  30  85 N9G20     30.16R
TARBORO*       FAIR      27  26  97 CALM      30.23R FOG
GOLDSBORO      MOCLDY    31  31  99 CALM      30.20R
WASHINGTON     MOCLDY    31  29  92 N5        30.22R
GREENVILLE       N/A     32  30  93 CALM      30.23R FOG
NEW BERN       CLOUDY    33  30  88 N5        30.21R
WILMINGTON     CLOUDY    34  31  88 N3        30.20R
$$

VAZ048-271000-
ELSEWHERE

CITY           SKY/WX    TMP DP  RH WIND       PRES   REMARKS
HARRISBURG PA  CLOUDY    23  14  68 N8        30.23R
BALTIMORE      MOCLDY    27  21  78 CALM      30.20R
ANNAPOLIS      CLOUDY    28  24  85 CALM      30.22R FOG
ANDREWS AFB    MOCLDY    29  24  81 S2        30.20R
PHILADELPHIA   CLOUDY    26  15  63 N8        30.23R
HENDERSON NC   CLEAR     26  24  95 CALM      30.20R FOG
GREENSBORO     FOG       25  23  92 SW5       30.17R VSB 1/4
ROCKY MOUNT    CLEAR     29  27  92 CALM      30.22R FOG
$$

VAZ100-271000-
MARINE

STATION/POSITION TIME  TEMP    WIND        PRES    WAVE   SWELL
                       AIR SEA DIR/SP/G            HT/PER HT/PER
                 (UTC) (F)     (DEG/KT/KT) (MB)    (FT/S) (FT/S)
BRANDYWINE LGT   0900   27 29   60/  3/  5 1023.1
CAPE MAY NJ      0900   23 32   CALM  /  2 1022.6F
LEWES DE         0900   24 30  280/  3/  3 1023.0R
15NM E FENWICK I 0900   31 36              1022.3R   6/ 9
OCEAN-CITY-INLET 0900   26 32   10/  3/  4 1022.3
WACHAPREAGUE VA  0900   23 32  360/  2/  5 1022.8R
THOMAS POINT MD  0900   29 31   CALM  /  1 1024.5R
COVE POINT MD    0900   28      CALM  /  1 1023.1R
SOLOMONS ISLAND  0900      32                N/A
BISHOPS HEAD MD  0900   28 31   60/  1/  2 1022.8R
CAMBRIDGE MD     0900   27 32   CALM  /  2 1023.3R
LEWISETTA VA     0900             CALM     1023.3R
RAPPAHANNOCK LGT 0900          350/  4/  5 1023.5R
STINGRAY PT      0900   30 32  340/  4/  6   N/A     0
YORK RVR RNG VA  0900          340/  7/  7   N/A
YORKTOWN VA      0900          290/  3/  5   N/A
DOMINION TERM VA 0900   30     330/  6/  8 1023.0R
KIPTOPEKE VA     0900           60/  5/  6   N/A
CHES BAY BRIDGE  0900   31 33   10/  6/  8 1022.0S
CAPE HENRY VA    0900   30      10/  9/ 10 1021.2R
CHESAPEAKE LGHT  0800   32      10/ 15/ 15 1022.5R
WILLOUBY STN VA  0900          330/  8/  9 1023.3R
S CRANEY ISL VA  0900          320/  5/  7   N/A
CAPE HENRY BUOY  0900      35                N/A     5/11   2/11
1ST LANDING BUOY 0900   31 32   30/  8/ 10 1022.1R   3/ 5
OFFSHORE WE BUOY 0900      38                N/A     7/10   7/10
64NM E OF VA BCH 0900   40 60  360/ 17/ 21 1020.6R  10/10   8/10
DUCK PIER NC     0900           10/ 14/ 16   N/A
44100 DUCK FRF   0800      36                N/A     8/12   5/12
44056 DUCK FRF   0900      35                N/A     7/10   3/13
OREGON INLET NC  0900   34 37  350/ 10/ 14 1021.7R
HATTERAS NC      0900   35 39  360/ 18/ 21 1021.4R
CAPE LOOKOUT NC  0900   34     360/ 13/ 15 1022.0R
$$



USA.gov is the U.S. government's official web portal to all federal, state and local government web resources and services.